TimePDT,TemperatureF,Dew PointF,Humidity,Sea Level PressureIn,VisibilityMPH,Wind Direction,Wind SpeedMPH,Gust SpeedMPH,PrecipitationIn,Events,Conditions,WindDirDegrees,DateUTC
12:00 AM,35.6,22.1,58,30.42,-9999.0,Calm,Calm,-,N/A,,Unknown,0,2012-10-06 07:00:00
1:00 AM,33.3,21.7,63,30.44,-9999.0,Calm,Calm,-,N/A,,Unknown,0,2012-10-06 08:00:00
2:00 AM,30.6,21.0,68,30.45,-9999.0,Calm,Calm,-,N/A,,Unknown,0,2012-10-06 09:00:00
3:00 AM,30.0,21.2,70,30.45,-9999.0,Calm,Calm,-,N/A,,Unknown,0,2012-10-06 10:00:00
4:00 AM,27.9,20.7,74,30.46,-9999.0,Calm,Calm,-,N/A,,Unknown,0,2012-10-06 11:00:00
5:00 AM,27,21,70,30.48,,Calm,Calm,,,,,,2012-10-06 12:00:00
5:00 AM,27.1,21.0,78,30.48,-9999.0,Calm,Calm,-,N/A,,Unknown,0,2012-10-06 12:00:00
6:00 AM,26.8,20.7,78,30.49,-9999.0,Calm,Calm,-,N/A,,Unknown,0,2012-10-06 13:00:00
7:00 AM,25.3,20.1,81,30.49,-9999.0,Calm,Calm,-,N/A,,Unknown,0,2012-10-06 14:00:00
8:00 AM,28.0,21.6,77,30.51,-9999.0,Calm,Calm,-,N/A,,Unknown,0,2012-10-06 15:00:00
9:00 AM,33.6,22.8,65,30.51,-9999.0,Calm,Calm,-,N/A,,Unknown,0,2012-10-06 16:00:00
10:00 AM,36.7,22.6,57,30.49,-9999.0,Calm,Calm,-,N/A,,Unknown,0,2012-10-06 17:00:00
11:00 AM,43,23,32,30.46,,Calm,Calm,,,,,,2012-10-06 18:00:00
11:00 AM,42.8,23.2,46,30.46,-9999.0,Calm,Calm,-,N/A,,Unknown,0,2012-10-06 18:00:00
12:00 PM,48.9,24.1,38,30.42,-9999.0,SE,1.2,-,N/A,,Unknown,130,2012-10-06 19:00:00
1:00 PM,54.9,25.7,32,30.38,-9999.0,Calm,Calm,-,N/A,,Unknown,0,2012-10-06 20:00:00
2:00 PM,59.4,27.1,29,30.33,-9999.0,Calm,Calm,-,N/A,,Unknown,0,2012-10-06 21:00:00
3:00 PM,64.4,29.5,27,30.30,-9999.0,Calm,Calm,-,N/A,,Unknown,0,2012-10-06 22:00:00
4:00 PM,66.4,30.0,26,30.27,-9999.0,Calm,Calm,-,N/A,,Unknown,0,2012-10-06 23:00:00
5:00 PM,67,31,15,30.25,,Calm,Calm,,,,,,2012-10-07 00:00:00
5:00 PM,67.1,30.7,26,30.25,-9999.0,Calm,Calm,-,N/A,,Unknown,0,2012-10-07 00:00:00
6:00 PM,59.9,30.9,33,30.25,-9999.0,WNW,3.5,-,N/A,,Unknown,290,2012-10-07 01:00:00
7:00 PM,55.4,31.8,41,30.25,-9999.0,Calm,Calm,-,N/A,,Unknown,0,2012-10-07 02:00:00
8:00 PM,52.2,31.3,45,30.26,-9999.0,Calm,Calm,-,N/A,,Unknown,0,2012-10-07 03:00:00
9:00 PM,46.8,30.7,54,30.27,-9999.0,Calm,Calm,-,N/A,,Unknown,0,2012-10-07 04:00:00
10:00 PM,44.4,31.1,60,30.27,-9999.0,Calm,Calm,-,N/A,,Unknown,0,2012-10-07 05:00:00
11:00 PM,42,30,51,30.27,,Calm,Calm,,,,,,2012-10-07 06:00:00
11:00 PM,41.7,30.0,63,30.27,-9999.0,Calm,Calm,-,N/A,,Unknown,0,2012-10-07 06:00:00